Location: Dehesa de la Cepeda
(40.6574°N, 4.3013°W)
Time: 02:56:54
(UTC+00:00)

Courier 1B - Pass Details

Date: 08 August 2021
Orbit: 963 x 1209 km, 28.3° (Epoch: 17 September)

Event Time Altitude Azimuth Distance (km) Brightness Sun altitude
Rises 18:00:53 0° 248° (WSW) 4,030 11.8 14.4°
Reaches altitude 10° 18:03:58 10° 239° (WSW) 3,095 11.0 13.8°
Maximum altitude 18:10:41 33° 179° (S) 1,904 9.1 12.6°
Drops below altitude 10° 18:17:28 10° 119° (ESE) 3,140 9.6 11.3°
Sets 18:20:38 0° 110° (ESE) 4,096 10.1 10.7°
